| time (UTC) | temp C | wind direction | speed KPH | gust KPH | rain 1hr cm | rain 24hr cm | rain mn cm | humidity % | barometer mb |
| 20260506142554 | 27 | 0.0 | 0.0 | 0.00 | 0.00 | 0.00 | 26 | 1006.9 | |
| 20260506141212 | 28 | 0.0 | 0.0 | 0.00 | 0.00 | 0.00 | 24 | 1006.5 | |
| 20260506135828 | 29 | 0.0 | 0.0 | 0.00 | 0.00 | 0.00 | 23 | 1006.6 | |
| 20260506134442 | 28 | 0.0 | 0.0 | 0.00 | 0.00 | 0.00 | 23 | 1006.4 | |
| 20260506133058 | 28 | 0.0 | 0.0 | 0.00 | 0.00 | 0.00 | 24 | 1006.5 | |
| 20260506131711 | 27 | 0.0 | 0.0 | 0.00 | 0.00 | 0.00 | 24 | 1006.7 | |
| 20260506130329 | 28 | 0.0 | 0.0 | 0.00 | 0.00 | 0.00 | 23 | 1006.8 | |
| 20260506124945 | 29 | 0.0 | 0.0 | 0.00 | 0.00 | 0.00 | 22 | 1006.9 | |
| 20260506123557 | 28 | 0.0 | 0.0 | 0.00 | 0.00 | 0.00 | 23 | 1006.9 | |
| 20260506122220 | 30 | 0.0 | 0.0 | 0.00 | 0.00 | 0.00 | 20 | 1006.8 | |
| 20260506120841 | 31 | 0.0 | 0.0 | 0.00 | 0.00 | 0.00 | 22 | 1006.7 | |
| 20260506115441 | 33 | 0.0 | 0.0 | 0.00 | 0.00 | 0.00 | 20 | 1006.7 | |
| 20260506114055 | 32 | 0.0 | 0.0 | 0.00 | 0.00 | 0.00 | 22 | 1007.0 | |
| 20260506112712 | 28 | 0.0 | 0.0 | 0.00 | 0.00 | 0.00 | 26 | 1007.5 | |
| 20260506111334 | 30 | 0.0 | 0.0 | 0.00 | 0.00 | 0.00 | 24 | 1007.7 | |
| 20260506105944 | 29 | 0.0 | 0.0 | 0.00 | 0.00 | 0.00 | 25 | 1007.9 | |
| 20260506104558 | 28 | 0.0 | 0.0 | 0.00 | 0.00 | 0.00 | 27 | 1008.2 | |
| 20260506103213 | 28 | 0.0 | 0.0 | 0.00 | 0.00 | 0.00 | 31 | 1008.1 | |
| 20260506101829 | 28 | 0.0 | 0.0 | 0.00 | 0.00 | 0.00 | 32 | 1008.4 | |
| 20260506100455 | 33 | 0.0 | 0.0 | 0.00 | 0.00 | 0.00 | 25 | 1008.3 | |
| 20260506095106 | 29 | 0.0 | 0.0 | 0.00 | 0.00 | 0.00 | 31 | 1008.6 | |
| 20260506093721 | 28 | 0.0 | 0.0 | 0.00 | 0.00 | 0.00 | 33 | 1008.9 | |
| 20260506092349 | 30 | 0.0 | 0.0 | 0.00 | 0.00 | 0.00 | 30 | 1008.8 | |
| 20260506091007 | 32 | 0.0 | 0.0 | 0.00 | 0.00 | 0.00 | 26 | 1008.8 | |
| 20260506085638 | 45 | 0.0 | 0.0 | 0.00 | 0.00 | 0.00 | 14 | 1008.2 | |
| 20260506084300 | 46 | 0.0 | 0.0 | 0.00 | 0.00 | 0.00 | 14 | 1008.4 | |
| 20260506082912 | 44 | 0.0 | 0.0 | 0.00 | 0.00 | 0.00 | 15 | 1008.3 | |
| 20260506081521 | 41 | 0.0 | 0.0 | 0.00 | 0.00 | 0.00 | 18 | 1008.7 | |
| 20260506080148 | 43 | 0.0 | 0.0 | 0.00 | 0.00 | 0.00 | 16 | 1008.5 | |
| 20260506073329 | 28 | 0.0 | 0.0 | 0.00 | 0.00 | 0.00 | 35 | 1009.4 | |
| 20260506071945 | 24 | 0.0 | 0.0 | 0.00 | 0.00 | 0.00 | 43 | 1009.9 | |
| 20260506070624 | 32 | 0.0 | 0.0 | 0.00 | 0.00 | 0.00 | 27 | 1009.5 | |
| 20260506062436 | 18 | 0.0 | 0.0 | 0.00 | 0.00 | 0.00 | 69 | 1010.6 | |
| 20260506061051 | 18 | 0.0 | 0.0 | 0.00 | 0.00 | 0.00 | 70 | 1010.7 | |
| 20260506050208 | 14 | 0.0 | 0.0 | 0.00 | 0.00 | 0.00 | 89 | 1011.0 | |
| 20260506044826 | 13 | 0.0 | 0.0 | 0.00 | 0.00 | 0.00 | 91 | 1011.3 | |
| 20260506043443 | 13 | 0.0 | 0.0 | 0.00 | 0.00 | 0.00 | 93 | 1011.2 | |
| 20260506042059 | 13 | 0.0 | 0.0 | 0.00 | 0.00 | 0.00 | 97 | 1011.3 | |
| 20260506040714 | 12 | 0.0 | 0.0 | 0.00 | 0.00 | 0.00 | 10 | 1011.5 | |
| 20260506035328 | 12 | 0.0 | 0.0 | 0.00 | 0.00 | 0.00 | 10 | 1011.4 | |
| 20260506033945 | 12 | 0.0 | 0.0 | 0.00 | 0.00 | 0.00 | 10 | 1011.5 | |
| 20260506032600 | 11 | 0.0 | 0.0 | 0.00 | 0.00 | 0.00 | 10 | 1011.6 | |
| 20260506031217 | 11 | 0.0 | 0.0 | 0.00 | 0.00 | 0.00 | 10 | 1011.7 | |
| 20260506025833 | 11 | 0.0 | 0.0 | 0.00 | 0.00 | 0.00 | 10 | 1011.5 | |
| 20260506024450 | 11 | 0.0 | 0.0 | 0.00 | 0.00 | 0.00 | 10 | 1011.4 | |
| 20260506023106 | 11 | 0.0 | 0.0 | 0.00 | 0.00 | 0.00 | 10 | 1011.2 | |
| 20260506021724 | 11 | 0.0 | 0.0 | 0.00 | 0.00 | 0.00 | 10 | 1011.4 | |
| 20260506020341 | 11 | 0.0 | 0.0 | 0.00 | 0.00 | 0.00 | 10 | 1011.4 | |
| 20260506014958 | 11 | 0.0 | 0.0 | 0.00 | 0.00 | 0.00 | 10 | 1011.4 | |
| 20260506013615 | 11 | 0.0 | 0.0 | 0.00 | 0.00 | 0.00 | 10 | 1011.3 | |
| 20260506012230 | 12 | 0.0 | 0.0 | 0.00 | 0.00 | 0.00 | 10 | 1011.2 | |
| 20260506010847 | 12 | 0.0 | 0.0 | 0.00 | 0.00 | 0.00 | 10 | 1011.2 | |
| 20260506004122 | 12 | 0.0 | 0.0 | 0.00 | 0.00 | 0.00 | 10 | 1011.1 | |
| 20260506002737 | 12 | 0.0 | 0.0 | 0.00 | 0.00 | 0.00 | 10 | 1011.1 | |
| 20260506001354 | 12 | 0.0 | 0.0 | 0.00 | 0.00 | 0.00 | 10 | 1011.1 | |
| 20260506000012 | 13 | 0.0 | 0.0 | 0.00 | 0.00 | 0.00 | 10 | 1011.0 | |
| 20260505234626 | 13 | 0.0 | 0.0 | 0.00 | 0.00 | 0.00 | 10 | 1011.0 | |
| 20260505233244 | 13 | 0.0 | 0.0 | 0.00 | 0.00 | 0.00 | 10 | 1010.9 | |
| 20260505231900 | 13 | 0.0 | 0.0 | 0.00 | 0.00 | 0.00 | 10 | 1010.9 | |
| 20260505230517 | 13 | 0.0 | 0.0 | 0.00 | 0.00 | 0.00 | 10 | 1010.9 | |
| 20260505225134 | 13 | 0.0 | 0.0 | 0.00 | 0.00 | 0.00 | 10 | 1011.1 | |
| 20260505223750 | 13 | 0.0 | 0.0 | 0.00 | 0.00 | 0.00 | 10 | 1011.2 | |
| 20260505222408 | 13 | 0.0 | 0.0 | 0.00 | 0.00 | 0.00 | 10 | 1011.3 | |
| 20260505221025 | 13 | 0.0 | 0.0 | 0.00 | 0.00 | 0.00 | 10 | 1011.5 | |
| 20260505215642 | 13 | 0.0 | 0.0 | 0.00 | 0.00 | 0.00 | 10 | 1011.7 | |
| 20260505214259 | 14 | 0.0 | 0.0 | 0.00 | 0.00 | 0.00 | 10 | 1011.5 | |
| 20260505212916 | 14 | 0.0 | 0.0 | 0.00 | 0.00 | 0.00 | 10 | 1011.6 | |
| 20260505211532 | 14 | 0.0 | 0.0 | 0.00 | 0.00 | 0.00 | 10 | 1011.5 | |
| 20260505210149 | 15 | 0.0 | 0.0 | 0.00 | 0.00 | 0.00 | 10 | 1011.4 | |
| 20260505204805 | 15 | 0.0 | 0.0 | 0.00 | 0.00 | 0.00 | 10 | 1011.4 | |
| 20260505203423 | 15 | 0.0 | 0.0 | 0.00 | 0.00 | 0.00 | 10 | 1011.4 | |
| 20260505202039 | 15 | 0.0 | 0.0 | 0.00 | 0.00 | 0.00 | 10 | 1011.3 | |
| 20260505200656 | 15 | 0.0 | 0.0 | 0.00 | 0.00 | 0.00 | 10 | 1011.3 | |
| 20260505195313 | 15 | 0.0 | 0.0 | 0.00 | 0.00 | 0.00 | 10 | 1011.1 | |
| 20260505193931 | 15 | 0.0 | 0.0 | 0.00 | 0.00 | 0.00 | 10 | 1011.1 | |
| 20260505192546 | 16 | 0.0 | 0.0 | 0.00 | 0.00 | 0.00 | 10 | 1011.0 | |
| 20260505191202 | 16 | 0.0 | 0.0 | 0.00 | 0.00 | 0.00 | 10 | 1011.0 | |
| 20260505185820 | 16 | 0.0 | 0.0 | 0.00 | 0.00 | 0.00 | 10 | 1011.0 | |
| 20260505184438 | 16 | 0.0 | 0.0 | 0.00 | 0.00 | 0.00 | 10 | 1010.9 | |
| 20260505183055 | 16 | 0.0 | 0.0 | 0.00 | 0.00 | 0.00 | 10 | 1010.8 | |
| 20260505181713 | 17 | 0.0 | 0.0 | 0.00 | 0.00 | 0.00 | 10 | 1010.7 | |
| 20260505180330 | 17 | 0.0 | 0.0 | 0.00 | 0.00 | 0.00 | 10 | 1010.6 | |
| 20260505174947 | 17 | 0.0 | 0.0 | 0.00 | 0.00 | 0.00 | 10 | 1010.4 | |
| 20260505173604 | 18 | 0.0 | 0.0 | 0.00 | 0.00 | 0.00 | 10 | 1010.2 | |
| 20260505172222 | 18 | 0.0 | 0.0 | 0.00 | 0.00 | 0.00 | 10 | 1010.2 | |
| 20260505170840 | 18 | 0.0 | 0.0 | 0.00 | 0.00 | 0.00 | 10 | 1010.1 | |
| 20260505165457 | 19 | 0.0 | 0.0 | 0.00 | 0.00 | 0.00 | 10 | 1010.0 | |
| 20260505164113 | 18 | 0.0 | 0.0 | 0.00 | 0.00 | 0.00 | 10 | 1010.2 | |
| 20260505162730 | 18 | 0.0 | 0.0 | 0.00 | 0.00 | 0.00 | 10 | 1010.3 | |
| 20260505161347 | 19 | 0.0 | 0.0 | 0.00 | 0.00 | 0.00 | 98 | 1010.2 | |
| 20260505153238 | 20 | 0.0 | 0.0 | 0.00 | 0.00 | 0.00 | 89 | 1010.5 | |
| 20260505151853 | 19 | 0.0 | 0.0 | 0.00 | 0.00 | 0.00 | 94 | 1010.6 | |
| 20260505150514 | 20 | 0.0 | 0.0 | 0.00 | 0.00 | 0.00 | 10 | 1010.9 |